Regional Weather Roundup
Issued by NWS Goodland, KS

Home | Current Version | Previous Version | Text Only | Print | Product List | Glossary On
Versions: 1 2 3 4 5 6 7 8 9 10 11 12 13 14 15 16 17 18 19 20 21 22 23 24 25 26 27 28 29 30 31 32 33 34 35 36 37 38 39 40 41 42 43 44 45 46 47 48 49 50
000
ASUS43 KGLD 031108
RWRGLD

GOODLAND FORECAST AREA HOURLY WEATHER ROUNDUP
NATIONAL WEATHER SERVICE GOODLAND KS
400 AM MST SAT DEC 03 2016

...OFFICIAL OBSERVATIONS...

CITY           SKY/WX    TMP DP  RH WIND       PRES   REMARKS
GOODLAND KS    PTCLDY    28  17  63 S10       30.14F WCI  19
HILL CITY KS   CLOUDY    30  25  81 CALM      30.23F
IMPERIAL NEB   PTCLDY    29  24  82 S8        30.14F
MCCOOK NEB     CLOUDY    23  19  85 SE8       30.20F
AKRON CO       CLEAR     24  18  77 S13       30.08F WCI  12
BURLINGTON CO  CLEAR     23  18  81 S10       30.13F WCI  12
LIMON CO       CLOUDY    16  13  88 S12       30.08F WCI   3
$$

...UNOFFICIAL OBSERVATIONS...

CITY           SKY/WX    TMP DP  RH WIND       PRES   REMARKS
COLBY KS       CLEAR     32  23  69 S7        30.18F
LENORA KS        N/A     29  32 100 MISG        N/A
NORTON KS      CLOUDY    28  21  74 CALM      30.21F
SHARON SPRINGS   N/A     27  17  66 S6          N/A
TRENTON NEB      N/A     29  32 100 CALM        N/A
KIT CARSON CO    N/A     19  16  89 CALM        N/A
YUMA CO        FAIR      19  16  86 SW7       30.11F
$$




USA.gov is the U.S. government's official web portal to all federal, state and local government web resources and services.